Wind_Speed
36 40 43 44 46 48 48 50 53 53 53 55 59 60 59 59 58 57 56 54 52 49 47 45 44 43 42 40 39 38 36 35 34 32 31 30 29 29 28 27 26 25 24 23
34 37 40 42 45 46 48 50 52 53 53 55 58 61 61 61 60 58 57 56 54 51 49 47 45 44 43 42 40 39 38 36 35 33 32 32 31 30 29 28 27 27 26 25
32 34 38 42 44 46 48 49 49 52 52 53 56 61 62 62 61 60 59 58 56 53 51 49 47 45 44 43 42 40 39 37 36 35 34 33 33 31 30 29 28 28 27 26
29 31 36 41 42 44 47 47 48 50 53 54 56 59 62 62 62 61 60 59 57 55 53 51 49 47 45 43 42 42 41 39 38 37 35 34 33 32 31 31 30 29 28 27
29 31 34 37 40 43 44 46 47 48 50 54 55 59 60 62 64 61 59 58 58 56 54 52 50 48 46 44 44 43 42 41 39 38 37 35 34 33 33 32 31 30 29 28
28 30 33 34 38 41 41 43 46 47 49 54 54 57 61 59 61 60 58 58 58 56 55 53 51 50 48 46 45 44 43 42 40 39 38 37 35 35 34 33 32 32 31 30
26 29 30 32 35 38 40 41 43 46 50 53 52 56 61 56 56 58 58 58 57 57 56 55 53 52 50 48 47 46 44 43 41 39 38 37 36 36 35 34 34 33 32 31
23 28 31 31 33 35 38 40 41 44 48 51 52 56 57 53 54 57 58 58 57 57 56 56 54 53 51 49 47 47 46 44 42 41 39 38 37 37 36 35 35 34 33 33
23 25 29 30 31 34 37 39 39 41 45 49 52 53 54 52 52 54 56 57 57 57 56 56 55 54 53 50 49 48 47 45 44 42 40 39 38 38 37 36 36 35 35 34
22 24 26 29 29 32 35 36 38 40 41 44 49 51 53 50 49 51 54 54 55 55 56 55 55 55 54 52 50 49 48 47 45 44 42 41 40 38 38 38 37 36 36 35
21 23 25 28 30 32 34 37 40 41 43 43 44 46 47 47 48 49 50 51 52 54 55 54 54 55 54 53 52 50 49 48 47 45 43 42 41 40 39 38 37 37 36 36
21 22 24 27 29 31 34 37 40 42 44 45 45 43 43 44 47 48 48 49 50 51 52 53 53 54 54 53 52 51 49 48 47 45 44 43 41 41 40 39 38 37 36 36
22 23 24 26 28 31 34 36 38 41 43 45 46 44 42 42 44 47 48 48 49 50 51 52 52 53 53 53 53 51 50 48 47 46 45 44 43 42 41 40 39 38 38 37
25 26 26 26 28 31 34 35 38 41 44 44 45 44 42 41 42 44 47 48 48 50 50 51 51 52 52 52 53 52 51 49 48 47 46 45 44 42 42 41 40 39 39 39
27 28 27 27 28 31 33 34 37 39 40 41 42 44 43 41 41 42 45 47 48 48 48 49 50 51 51 51 51 52 51 50 49 48 47 45 44 44 43 42 41 41 40 39
27 28 28 28 29 32 32 33 35 37 39 40 42 44 42 43 42 41 43 46 48 47 47 48 50 51 51 51 51 51 51 50 49 48 48 47 46 45 44 43 42 42 41 41
27 29 29 28 28 33 33 32 34 35 37 39 42 43 41 42 44 43 42 44 46 46 46 47 49 51 50 51 51 52 52 51 49 48 48 47 46 45 44 44 43 42 41 41
26 28 29 28 29 32 30 31 33 35 37 38 40 41 43 44 44 45 44 43 45 44 45 47 48 48 51 51 50 51 52 51 50 49 48 47 46 46 45 45 43 43 42 41
24 27 28 29 30 30 29 30 32 34 36 38 37 39 42 44 45 45 46 46 45 44 45 46 47 47 48 49 49 50 50 51 51 49 48 48 47 47 46 45 44 44 43 43
25 26 28 29 29 29 29 29 30 33 34 36 37 38 40 42 45 46 46 48 47 45 44 45 47 48 48 48 48 48 49 50 50 49 48 48 48 47 46 45 45 45 44 43
24 27 28 29 29 28 27 28 31 34 34 35 36 38 40 41 42 45 46 48 48 47 45 44 45 46 47 47 47 47 47 47 48 48 48 48 48 47 46 45 45 45 44 43
24 26 28 29 31 28 27 29 31 32 34 36 37 38 40 42 41 43 46 48 48 47 46 45 45 46 47 47 47 46 46 46 46 46 47 47 47 47 46 46 45 44 43 42
23 25 27 28 28 29 29 30 31 31 33 35 37 38 39 41 42 44 46 48 48 47 46 46 46 46 48 48 47 46 46 46 46 46 46 45 46 45 45 45 43 43 42 41
23 25 27 27 27 29 30 31 32 33 33 35 36 37 38 40 43 43 45 47 47 47 47 47 47 47 47 47 47 48 48 47 46 45 44 44 44 44 44 44 43 42 42 41
22 24 25 25 26 28 29 31 32 34 35 36 37 37 37 39 42 44 44 46 47 47 47 47 48 49 47 48 49 48 48 47 47 46 45 44 44 43 44 43 42 42 41 40
21 24 26 26 26 28 28 31 32 33 34 35 36 37 38 38 40 43 46 46 47 47 47 48 49 50 50 50 49 49 49 48 47 46 45 45 44 43 43 42 42 41 40 39
Wind_Direction
238 233 229 227 228 227 228 228 226 223 223 223 223 223 219 218 219 219 218 218 219 219 218 218 217 217 218 218 218 218 218 220 221 223 225 227 230 234 236 238 242 246 252 256
236 234 230 227 225 226 225 226 225 224 223 224 224 223 220 218 219 219 218 218 218 219 219 218 218 217 218 219 219 219 220 221 223 224 227 229 231 233 236 239 243 247 252 256
235 232 229 227 226 225 224 225 225 226 224 226 225 224 221 219 219 219 218 218 218 219 219 219 219 219 219 220 220 220 221 223 224 226 228 230 232 234 237 241 244 248 252 256
234 231 228 226 225 226 225 224 225 226 227 225 225 226 221 220 219 218 218 218 218 218 220 220 221 220 220 220 221 222 223 224 226 228 230 232 234 236 239 242 245 248 252 257
234 231 228 227 224 225 226 224 226 227 229 228 224 227 221 221 220 218 218 219 219 219 221 221 222 222 222 222 222 223 224 225 227 230 232 233 235 237 240 243 246 249 252 256
236 232 228 226 224 224 224 225 226 227 230 230 224 228 224 220 220 220 219 219 220 220 222 222 223 223 223 223 223 224 225 227 228 231 233 234 236 238 241 244 247 249 252 256
236 230 226 223 221 222 223 224 226 228 230 230 225 229 226 219 220 221 220 220 221 221 222 223 223 224 224 224 225 225 227 228 230 232 234 235 237 239 242 245 247 249 252 256
238 228 224 224 222 220 222 224 226 230 231 231 229 230 226 222 220 221 221 221 220 221 222 223 224 225 225 226 226 227 228 229 231 233 235 236 237 240 243 245 248 250 252 255
241 232 224 226 225 223 222 223 225 230 232 233 232 230 227 223 221 221 221 222 221 221 222 223 224 225 226 227 227 228 230 231 232 233 235 236 238 241 243 245 247 250 253 256
245 238 226 226 226 225 225 224 224 227 231 231 231 229 227 223 222 221 221 222 222 222 223 224 225 226 227 228 229 229 230 232 233 234 236 237 239 241 244 245 247 251 253 256
249 244 232 228 226 223 223 224 225 228 231 232 231 228 226 225 224 223 222 223 222 223 223 224 226 226 227 228 229 230 231 231 233 234 235 237 239 241 243 246 248 250 253 255
248 244 236 231 228 226 225 225 226 229 231 232 231 227 224 225 223 222 222 222 222 221 222 223 225 226 227 227 228 229 230 231 232 234 235 237 239 241 243 245 248 250 252 255
247 244 238 232 229 228 227 225 226 228 231 232 231 226 223 223 222 221 221 221 221 221 221 222 223 225 226 227 228 229 230 230 231 233 235 237 238 240 242 244 247 249 252 255
245 243 240 237 233 230 229 227 226 228 231 232 230 226 222 222 221 221 220 221 221 221 221 222 222 224 226 227 228 229 230 230 231 232 234 236 237 239 241 244 246 249 252 255
250 246 242 241 238 236 233 229 229 231 232 233 226 226 222 222 219 219 220 220 220 221 221 222 222 223 224 226 227 228 230 231 232 233 234 236 237 238 241 243 246 249 252 255
253 250 245 241 239 240 237 231 230 233 233 233 229 225 222 222 219 215 217 218 219 220 220 220 221 222 224 225 226 227 229 231 232 233 234 235 237 239 241 243 246 248 251 254
255 252 248 243 239 239 238 236 233 232 232 233 231 227 223 219 217 215 214 215 215 216 217 219 221 222 223 225 225 226 227 229 230 232 233 234 236 238 241 243 246 248 251 254
257 251 248 246 242 240 236 236 236 234 233 231 230 229 225 218 215 216 215 214 213 214 215 217 220 221 222 223 225 225 226 227 228 230 231 233 235 237 240 243 246 248 251 253
255 249 247 245 244 240 235 236 236 237 235 229 229 229 226 222 219 217 216 215 215 215 214 216 219 221 222 223 225 226 226 227 228 229 231 233 234 237 239 242 245 247 250 253
251 248 245 243 243 240 233 233 235 236 234 228 229 227 225 223 222 218 216 216 217 216 214 216 217 219 221 223 224 225 226 227 227 228 230 232 234 236 238 241 243 246 249 253
250 246 245 243 243 240 233 232 232 233 231 229 229 230 228 226 224 219 218 217 217 218 217 218 217 218 219 221 222 224 226 226 227 228 230 231 233 235 237 240 242 246 249 252
253 248 246 245 243 240 234 232 231 231 230 230 231 232 230 228 225 221 220 219 218 219 219 219 219 219 221 222 222 223 225 226 227 229 230 232 234 235 238 240 242 245 248 251
255 250 246 244 244 240 237 234 230 229 229 229 231 231 230 227 225 223 221 219 219 219 219 220 221 221 222 224 224 224 225 226 228 229 230 232 234 236 238 240 243 245 248 250
253 248 245 243 243 242 240 237 234 232 231 229 229 228 228 226 225 224 223 221 221 219 220 222 222 223 223 224 225 225 225 226 227 229 230 233 236 237 239 241 244 246 248 250
254 249 245 243 242 242 241 240 237 235 234 232 230 229 229 226 224 223 223 222 222 221 222 223 224 224 224 225 226 226 226 227 228 229 232 234 237 239 240 241 243 246 248 249
256 251 247 246 246 245 242 240 239 237 235 232 231 231 231 228 224 223 223 222 222 221 222 223 225 226 226 227 227 226 226 228 229 231 232 234 236 238 240 241 243 245 248 251
Height
5574 5579 5584 5592 5598 5606 5611 5617 5624 5633 5641 5646 5654 5662 5673 5680 5688 5697 5706 5715 5722 5731 5739 5745 5751 5757 5763 5769 5776 5781 5786 5791 5795 5799 5803 5807 5810 5813 5816 5818 5820 5822 5823 5824
5566 5571 5579 5583 5588 5593 5599 5605 5614 5622 5629 5634 5641 5649 5659 5668 5677 5687 5696 5705 5714 5722 5729 5736 5743 5750 5756 5762 5769 5774 5780 5784 5789 5794 5797 5801 5804 5807 5809 5812 5814 5816 5817 5818
5559 5566 5569 5573 5578 5583 5589 5596 5605 5612 5618 5623 5629 5636 5647 5657 5666 5676 5686 5695 5704 5713 5721 5728 5735 5742 5749 5755 5761 5767 5773 5778 5782 5787 5790 5794 5797 5800 5804 5806 5808 5810 5811 5813
5552 5557 5560 5564 5570 5575 5582 5590 5596 5601 5607 5612 5619 5623 5636 5646 5655 5665 5676 5686 5695 5704 5712 5720 5727 5734 5741 5748 5754 5760 5765 5770 5775 5779 5783 5787 5791 5795 5798 5800 5802 5804 5805 5806
5546 5549 5553 5558 5564 5569 5576 5582 5587 5592 5596 5601 5608 5612 5625 5634 5644 5657 5668 5678 5687 5696 5704 5712 5719 5726 5733 5740 5746 5752 5757 5762 5767 5772 5776 5781 5785 5788 5790 5793 5795 5797 5799 5800
5540 5543 5546 5551 5557 5562 5567 5573 5578 5581 5585 5589 5600 5603 5612 5626 5639 5651 5660 5669 5678 5686 5695 5703 5710 5717 5724 5731 5737 5743 5748 5754 5759 5764 5769 5773 5777 5780 5783 5786 5788 5790 5792 5793
5534 5537 5540 5544 5549 5555 5559 5564 5569 5572 5574 5581 5593 5594 5604 5622 5632 5641 5651 5659 5667 5676 5684 5693 5700 5708 5715 5722 5728 5734 5740 5746 5751 5756 5761 5766 5769 5772 5776 5778 5781 5783 5784 5786
5528 5532 5535 5538 5543 5548 5552 5557 5562 5566 5570 5577 5583 5586 5600 5614 5622 5629 5638 5647 5656 5664 5674 5682 5690 5698 5706 5713 5720 5726 5732 5738 5743 5748 5753 5757 5761 5764 5768 5771 5773 5775 5777 5778
5523 5527 5531 5534 5537 5542 5546 5549 5556 5560 5563 5568 5572 5581 5592 5602 5611 5620 5629 5637 5646 5655 5663 5672 5680 5688 5696 5703 5710 5717 5723 5729 5734 5740 5744 5749 5752 5756 5760 5762 5765 5767 5769 5770
5518 5521 5525 5528 5531 5535 5540 5544 5548 5551 5555 5559 5566 5574 5584 5596 5604 5612 5621 5629 5638 5646 5654 5662 5670 5677 5685 5693 5701 5707 5713 5720 5725 5730 5735 5740 5744 5748 5751 5753 5756 5759 5761 5762
5513 5516 5519 5522 5524 5529 5533 5537 5540 5544 5548 5553 5559 5570 5579 5588 5596 5603 5611 5619 5627 5635 5644 5651 5659 5667 5675 5682 5690 5697 5703 5709 5715 5721 5726 5730 5735 5739 5742 5745 5748 5750 5752 5753
5509 5510 5513 5516 5519 5522 5525 5529 5533 5538 5542 5546 5552 5563 5569 5577 5585 5592 5600 5607 5615 5623 5632 5640 5648 5656 5663 5671 5679 5686 5693 5699 5706 5711 5716 5721 5725 5729 5733 5736 5739 5741 5743 5745
5504 5505 5507 5510 5514 5516 5518 5522 5526 5530 5534 5538 5543 5554 5562 5568 5574 5582 5589 5596 5604 5612 5620 5629 5637 5644 5652 5660 5668 5675 5682 5689 5695 5701 5706 5711 5716 5720 5724 5727 5730 5732 5734 5736
5497 5499 5502 5504 5506 5508 5511 5515 5519 5522 5525 5530 5536 5545 5553 5559 5565 5572 5579 5586 5594 5602 5610 5618 5626 5634 5642 5649 5657 5665 5672 5678 5684 5690 5696 5701 5706 5710 5714 5718 5720 5723 5725 5727
5490 5492 5494 5496 5498 5500 5503 5507 5511 5514 5519 5523 5529 5535 5544 5550 5556 5562 5569 5576 5584 5592 5600 5608 5616 5623 5630 5638 5646 5653 5661 5667 5674 5680 5686 5691 5696 5700 5704 5707 5711 5713 5716 5717
5484 5485 5487 5489 5491 5492 5495 5499 5503 5507 5511 5514 5519 5526 5534 5540 5546 5552 5559 5566 5574 5582 5590 5597 5605 5612 5620 5627 5635 5642 5650 5657 5663 5669 5675 5680 5685 5690 5694 5697 5701 5704 5706 5708
5477 5478 5479 5481 5484 5484 5487 5492 5495 5498 5502 5506 5510 5518 5524 5530 5536 5543 5550 5557 5565 5572 5580 5587 5594 5602 5609 5617 5625 5632 5639 5645 5652 5658 5664 5670 5675 5679 5683 5687 5690 5693 5696 5698
5471 5471 5472 5474 5476 5477 5483 5484 5487 5490 5493 5497 5501 5507 5514 5520 5527 5534 5541 5548 5556 5563 5570 5578 5585 5592 5599 5606 5614 5621 5627 5634 5641 5647 5653 5659 5664 5669 5673 5677 5680 5683 5686 5688
5464 5464 5465 5466 5467 5469 5475 5477 5479 5481 5485 5488 5492 5498 5504 5511 5517 5525 5531 5538 5546 5553 5561 5568 5575 5582 5589 5596 5603 5610 5617 5624 5630 5636 5642 5648 5653 5658 5662 5666 5670 5673 5675 5677
5457 5457 5459 5459 5459 5462 5469 5470 5471 5473 5477 5481 5484 5490 5496 5502 5508 5517 5522 5529 5537 5544 5551 5558 5565 5572 5579 5586 5593 5600 5606 5613 5619 5626 5632 5637 5642 5647 5652 5656 5659 5662 5664 5667
5450 5450 5450 5451 5451 5455 5460 5462 5463 5467 5471 5474 5477 5482 5487 5492 5499 5507 5513 5520 5528 5535 5542 5549 5555 5562 5569 5576 5583 5589 5596 5603 5609 5614 5620 5626 5631 5636 5641 5645 5648 5651 5654 5656
5442 5443 5444 5444 5445 5451 5452 5453 5456 5458 5462 5465 5469 5473 5478 5484 5490 5497 5503 5511 5518 5525 5532 5539 5546 5553 5559 5566 5573 5579 5586 5593 5598 5604 5609 5615 5620 5625 5630 5634 5637 5640 5643 5646
5435 5436 5436 5437 5441 5443 5443 5445 5447 5450 5453 5457 5461 5465 5470 5475 5482 5488 5494 5501 5508 5515 5523 5530 5537 5543 5550 5556 5563 5569 5576 5582 5587 5593 5599 5604 5610 5614 5619 5623 5627 5630 5633 5635
5428 5427 5428 5429 5432 5434 5435 5437 5439 5442 5445 5448 5452 5456 5461 5467 5472 5478 5485 5491 5498 5505 5513 5520 5527 5534 5540 5546 5553 5559 5565 5571 5577 5583 5589 5594 5599 5604 5608 5612 5616 5619 5622 5625
5420 5419 5419 5421 5424 5425 5427 5429 5431 5433 5436 5440 5443 5448 5452 5457 5463 5469 5475 5482 5488 5495 5503 5509 5516 5523 5530 5536 5543 5549 5555 5561 5567 5573 5579 5584 5589 5594 5598 5602 5605 5609 5612 5614
5413 5412 5412 5414 5416 5415 5418 5420 5422 5425 5428 5431 5435 5439 5443 5448 5453 5459 5465 5472 5478 5485 5492 5499 5505 5512 5519 5525 5532 5538 5544 5550 5557 5563 5569 5574 5579 5583 5587 5591 5595 5598 5601 5604